Time,TemperatureF,DewpointF,PressureIn,WindDirection,WindDirectionDegrees,WindSpeedMPH,WindSpeedGustMPH,Humidity,HourlyPrecipIn,Conditions,Clouds,dailyrainin,SoftwareType,DateUTC
2013-05-30 00:07:00,75.8,74.0,29.92,ESE,107,5.0,5.0,93,0.00,,,0.00,weatherlink.com 1.10,2013-05-30 05:07:00,
2013-05-30 00:22:00,76.0,74.0,29.91,ESE,119,5.0,9.0,93,0.00,,,0.00,weatherlink.com 1.10,2013-05-30 05:22:00,
2013-05-30 00:37:00,76.0,74.0,29.91,East,96,3.0,8.0,93,0.00,,,0.00,weatherlink.com 1.10,2013-05-30 05:37:00,
2013-05-30 00:52:00,76.0,74.0,29.91,SE,125,3.0,6.0,93,0.00,,,0.00,weatherlink.com 1.10,2013-05-30 05:52:00,
2013-05-30 01:07:00,75.9,74.0,29.90,ESE,111,4.0,7.0,93,0.00,,,0.00,weatherlink.com 1.10,2013-05-30 06:07:00,
2013-05-30 01:37:00,75.8,74.0,29.90,ESE,113,2.0,7.0,93,0.00,,,0.00,weatherlink.com 1.10,2013-05-30 06:37:00,
2013-05-30 01:52:00,75.7,74.0,29.89,ESE,117,3.0,7.0,94,0.00,,,0.00,weatherlink.com 1.10,2013-05-30 06:52:00,
2013-05-30 02:07:00,75.5,74.0,29.89,ESE,111,2.0,5.0,94,0.00,,,0.00,weatherlink.com 1.10,2013-05-30 07:07:00,
2013-05-30 02:22:00,75.6,74.0,29.89,SE,125,3.0,8.0,94,0.00,,,0.00,weatherlink.com 1.10,2013-05-30 07:22:00,
2013-05-30 02:37:00,75.7,74.0,29.89,SE,132,3.0,7.0,94,0.00,,,0.00,weatherlink.com 1.10,2013-05-30 07:37:00,
2013-05-30 02:52:00,75.7,74.0,29.88,South,176,4.0,9.0,94,0.00,,,0.00,weatherlink.com 1.10,2013-05-30 07:52:00,
2013-05-30 03:07:00,75.6,74.0,29.88,South,178,1.0,4.0,94,0.00,,,0.00,weatherlink.com 1.10,2013-05-30 08:07:00,
2013-05-30 03:22:00,75.0,73.0,29.88,ESE,109,2.0,3.0,94,0.00,,,0.00,weatherlink.com 1.10,2013-05-30 08:22:00,
2013-05-30 03:37:00,74.7,73.0,29.88,ESE,115,2.0,5.0,95,0.00,,,0.00,weatherlink.com 1.10,2013-05-30 08:37:00,
2013-05-30 03:52:00,74.8,73.0,29.88,ESE,102,3.0,4.0,95,0.00,,,0.00,weatherlink.com 1.10,2013-05-30 08:52:00,
2013-05-30 04:07:00,74.7,73.0,29.88,SE,130,2.0,5.0,95,0.00,,,0.00,weatherlink.com 1.10,2013-05-30 09:07:00,
2013-05-30 04:22:00,74.8,73.0,29.88,SE,132,3.0,5.0,95,0.00,,,0.00,weatherlink.com 1.10,2013-05-30 09:22:00,
2013-05-30 04:37:00,74.6,73.0,29.88,SE,134,1.0,3.0,95,0.00,,,0.00,weatherlink.com 1.10,2013-05-30 09:37:00,
2013-05-30 04:52:00,74.4,73.0,29.87,ESE,119,0.0,3.0,96,0.00,,,0.00,weatherlink.com 1.10,2013-05-30 09:52:00,
2013-05-30 05:07:00,74.3,73.0,29.87,ESE,114,2.0,3.0,96,0.00,,,0.00,weatherlink.com 1.10,2013-05-30 10:07:00,
2013-05-30 05:22:00,74.7,74.0,29.87,ESE,114,1.0,5.0,96,0.00,,,0.00,weatherlink.com 1.10,2013-05-30 10:22:00,
2013-05-30 05:37:00,74.7,74.0,29.88,ESE,109,2.0,4.0,96,0.00,,,0.00,weatherlink.com 1.10,2013-05-30 10:37:00,
2013-05-30 05:52:00,74.6,73.0,29.88,ESE,102,2.0,4.0,96,0.00,,,0.00,weatherlink.com 1.10,2013-05-30 10:52:00,
2013-05-30 06:07:00,74.4,73.0,29.89,East,98,0.0,3.0,96,0.00,,,0.00,weatherlink.com 1.10,2013-05-30 11:07:00,
2013-05-30 06:22:00,74.1,73.0,29.89,ESE,103,1.0,2.0,96,0.00,,,0.00,weatherlink.com 1.10,2013-05-30 11:22:00,
2013-05-30 06:37:00,74.2,73.0,29.89,ESE,105,2.0,3.0,97,0.00,,,0.00,weatherlink.com 1.10,2013-05-30 11:37:00,
2013-05-30 06:52:00,74.5,74.0,29.89,ESE,111,2.0,5.0,97,0.00,,,0.00,weatherlink.com 1.10,2013-05-30 11:52:00,
2013-05-30 07:07:00,74.7,74.0,29.89,East,94,5.0,7.0,97,0.00,,,0.00,weatherlink.com 1.10,2013-05-30 12:07:00,
2013-05-30 07:22:00,75.5,75.0,29.90,East,101,5.0,6.0,97,0.00,,,0.00,weatherlink.com 1.10,2013-05-30 12:22:00,
2013-05-30 07:37:00,76.9,76.0,29.90,East,94,7.0,8.0,96,0.00,,,0.00,weatherlink.com 1.10,2013-05-30 12:37:00,
2013-05-30 07:44:00,77.1,75.6,29.90,ESE,109,5.0,7.0,95,0.00,,,0.00,Wunderground v.1.15,2013-05-30 12:44:00,
2013-05-30 07:50:00,77.7,75.8,29.90,East,92,5.0,7.0,94,0.00,,,0.00,Wunderground v.1.15,2013-05-30 12:50:00,
2013-05-30 07:58:00,78.2,76.0,29.90,ESE,117,4.0,7.0,93,0.00,,,0.00,Wunderground v.1.15,2013-05-30 12:58:00,
2013-05-30 08:04:00,78.4,76.2,29.90,ESE,112,5.0,7.0,93,0.00,,,0.00,Wunderground v.1.15,2013-05-30 13:04:00,
2013-05-30 08:10:00,78.5,76.3,29.90,SE,126,5.0,7.0,93,0.00,,,0.00,Wunderground v.1.15,2013-05-30 13:10:00,
2013-05-30 08:16:00,78.8,76.3,29.91,South,174,6.0,6.0,92,0.00,,,0.00,Wunderground v.1.15,2013-05-30 13:16:00,
2013-05-30 08:22:00,79.2,76.3,29.91,ESE,107,6.0,10.0,91,0.00,,,0.00,Wunderground v.1.15,2013-05-30 13:22:00,
2013-05-30 08:28:00,79.6,76.7,29.91,SE,138,7.0,10.0,91,0.00,,,0.00,Wunderground v.1.15,2013-05-30 13:28:00,
2013-05-30 08:34:00,80.3,77.1,29.91,East,90,6.0,6.0,90,0.00,,,0.00,Wunderground v.1.15,2013-05-30 13:34:00,
2013-05-30 08:40:00,80.8,76.9,29.91,South,176,6.0,8.0,88,0.00,,,0.00,Wunderground v.1.15,2013-05-30 13:40:00,
2013-05-30 08:46:00,80.7,76.5,29.91,SE,127,7.0,7.0,87,0.00,,,0.00,Wunderground v.1.15,2013-05-30 13:46:00,
2013-05-30 08:52:00,80.6,76.4,29.91,ESE,120,6.0,11.0,87,0.00,,,0.00,Wunderground v.1.15,2013-05-30 13:52:00,
2013-05-30 08:58:00,80.1,75.9,29.92,SE,125,7.0,11.0,87,0.00,,,0.00,Wunderground v.1.15,2013-05-30 13:58:00,
2013-05-30 09:04:00,80.2,76.0,29.92,South,182,7.0,11.0,87,0.00,,,0.00,Wunderground v.1.15,2013-05-30 14:04:00,
2013-05-30 09:10:00,80.3,76.0,29.92,SE,144,6.0,15.0,85,0.00,,,0.00,weatherlink.com 1.10,2013-05-30 14:10:00,
2013-05-30 09:16:00,80.2,75.3,29.92,ENE,73,7.0,8.0,85,0.00,,,0.00,Wunderground v.1.15,2013-05-30 14:16:00,
2013-05-30 09:22:00,80.5,75.6,29.92,South,171,6.0,10.0,85,0.00,,,0.00,Wunderground v.1.15,2013-05-30 14:22:00,
2013-05-30 09:28:00,80.7,75.8,29.92,SE,124,6.0,12.0,85,0.00,,,0.00,Wunderground v.1.15,2013-05-30 14:28:00,
2013-05-30 09:34:00,81.2,76.3,29.92,SSE,148,6.0,7.0,85,0.00,,,0.00,Wunderground v.1.15,2013-05-30 14:34:00,
2013-05-30 09:39:00,81.6,76.0,29.92,SSE,151,8.0,12.0,83,0.00,,,0.00,weatherlink.com 1.10,2013-05-30 14:39:00,
2013-05-30 09:46:00,82.3,76.3,29.92,SSW,193,7.0,8.0,82,0.00,,,0.00,Wunderground v.1.15,2013-05-30 14:46:00,
2013-05-30 09:52:00,82.7,75.9,29.92,SSE,157,7.0,10.0,80,0.00,,,0.00,Wunderground v.1.15,2013-05-30 14:52:00,
2013-05-30 09:58:00,83.3,77.2,29.92,SE,137,6.0,10.0,82,0.00,,,0.00,Wunderground v.1.15,2013-05-30 14:58:00,
2013-05-30 10:04:00,83.8,76.6,29.92,East,82,7.0,12.0,79,0.00,,,0.00,Wunderground v.1.15,2013-05-30 15:04:00,
2013-05-30 10:10:00,84.2,77.0,29.92,ESE,107,10.0,15.0,78,0.00,,,0.00,weatherlink.com 1.10,2013-05-30 15:10:00,
2013-05-30 10:16:00,84.2,76.2,29.92,South,174,7.0,8.0,77,0.00,,,0.00,Wunderground v.1.15,2013-05-30 15:16:00,
2013-05-30 10:22:00,84.4,76.4,29.92,SE,134,6.0,7.0,77,0.00,,,0.00,Wunderground v.1.15,2013-05-30 15:22:00,
2013-05-30 10:28:00,85.2,76.4,29.92,South,169,6.0,9.0,75,0.00,,,0.00,Wunderground v.1.15,2013-05-30 15:28:00,
2013-05-30 10:34:00,85.0,76.2,29.93,ESE,114,6.0,9.0,75,0.00,,,0.00,Wunderground v.1.15,2013-05-30 15:34:00,
2013-05-30 10:40:00,85.5,75.9,29.92,SE,144,6.0,8.0,73,0.00,,,0.00,Wunderground v.1.15,2013-05-30 15:40:00,
2013-05-30 10:46:00,85.6,75.5,29.93,ESE,120,7.0,13.0,72,0.00,,,0.00,Wunderground v.1.15,2013-05-30 15:46:00,
2013-05-30 10:52:00,84.7,74.7,29.93,South,179,8.0,8.0,72,0.00,,,0.00,Wunderground v.1.15,2013-05-30 15:52:00,
2013-05-30 10:58:00,84.7,74.7,29.93,SSE,150,8.0,12.0,72,0.00,,,0.00,Wunderground v.1.15,2013-05-30 15:58:00,
2013-05-30 11:04:00,85.4,75.3,29.93,ESE,119,8.0,8.0,72,0.00,,,0.00,Wunderground v.1.15,2013-05-30 16:04:00,
2013-05-30 11:10:00,85.7,76.0,29.93,SSE,155,7.0,7.0,73,0.00,,,0.00,Wunderground v.1.15,2013-05-30 16:10:00,
2013-05-30 11:16:00,86.0,75.9,29.93,SSE,168,6.0,7.0,72,0.00,,,0.00,Wunderground v.1.15,2013-05-30 16:16:00,
2013-05-30 11:22:00,85.7,74.8,29.93,South,182,8.0,9.0,70,0.00,,,0.00,Wunderground v.1.15,2013-05-30 16:22:00,
2013-05-30 11:28:00,85.4,75.3,29.93,ESE,119,8.0,10.0,72,0.00,,,0.00,Wunderground v.1.15,2013-05-30 16:28:00,
2013-05-30 11:34:00,85.6,75.9,29.93,SSE,149,7.0,10.0,73,0.00,,,0.00,Wunderground v.1.15,2013-05-30 16:34:00,
2013-05-30 11:40:00,85.3,74.4,29.92,SSE,156,8.0,8.0,70,0.00,,,0.00,Wunderground v.1.15,2013-05-30 16:40:00,
2013-05-30 11:46:00,85.6,75.1,29.93,South,188,7.0,10.0,71,0.00,,,0.00,Wunderground v.1.15,2013-05-30 16:46:00,
2013-05-30 11:52:00,86.1,75.6,29.93,SSE,159,7.0,10.0,71,0.00,,,0.00,Wunderground v.1.15,2013-05-30 16:52:00,
2013-05-30 11:58:00,86.5,76.4,29.92,South,180,7.0,10.0,72,0.00,,,0.00,Wunderground v.1.15,2013-05-30 16:58:00,
2013-05-30 12:04:00,86.2,75.7,29.92,SSE,168,6.0,10.0,71,0.00,,,0.00,Wunderground v.1.15,2013-05-30 17:04:00,
2013-05-30 12:10:00,86.5,74.7,29.92,SE,130,8.0,8.0,68,0.00,,,0.00,Wunderground v.1.15,2013-05-30 17:10:00,
2013-05-30 12:16:00,86.2,74.4,29.93,SE,137,9.0,10.0,68,0.00,,,0.00,Wunderground v.1.15,2013-05-30 17:16:00,
2013-05-30 12:27:00,85.9,75.0,29.92,South,169,7.0,13.0,70,0.00,,,0.00,weatherlink.com 1.10,2013-05-30 17:27:00,
2013-05-30 12:43:00,87.1,76.0,29.92,SE,126,6.0,14.0,70,0.00,,,0.00,weatherlink.com 1.10,2013-05-30 17:43:00,
2013-05-30 12:57:00,86.8,76.0,29.92,South,171,7.0,15.0,69,0.00,,,0.00,weatherlink.com 1.10,2013-05-30 17:57:00,
2013-05-30 13:12:00,87.1,76.0,29.92,SSE,156,6.0,16.0,69,0.00,,,0.00,weatherlink.com 1.10,2013-05-30 18:12:00,
2013-05-30 13:27:00,87.2,75.0,29.91,South,179,7.0,14.0,66,0.00,,,0.00,weatherlink.com 1.10,2013-05-30 18:27:00,
2013-05-30 13:42:00,87.3,74.0,29.91,SSE,167,14.0,15.0,65,0.00,,,0.00,weatherlink.com 1.10,2013-05-30 18:42:00,
2013-05-30 13:57:00,87.8,75.0,29.90,South,173,11.0,15.0,65,0.00,,,0.00,weatherlink.com 1.10,2013-05-30 18:57:00,
2013-05-30 14:12:00,87.2,74.0,29.90,South,173,5.0,13.0,65,0.00,,,0.00,weatherlink.com 1.10,2013-05-30 19:12:00,
2013-05-30 14:27:00,87.0,74.0,29.89,SSE,166,7.0,20.0,66,0.00,,,0.00,weatherlink.com 1.10,2013-05-30 19:27:00,
2013-05-30 14:42:00,88.0,76.0,29.89,South,184,8.0,13.0,67,0.00,,,0.00,weatherlink.com 1.10,2013-05-30 19:42:00,
2013-05-30 14:58:00,87.7,75.0,29.89,South,170,7.0,15.0,65,0.00,,,0.00,weatherlink.com 1.10,2013-05-30 19:58:00,
2013-05-30 15:13:00,87.0,75.0,29.89,South,183,9.0,14.0,67,0.00,,,0.00,weatherlink.com 1.10,2013-05-30 20:13:00,
2013-05-30 15:28:00,86.7,74.0,29.88,SSE,165,8.0,14.0,66,0.00,,,0.00,weatherlink.com 1.10,2013-05-30 20:28:00,
2013-05-30 15:43:00,87.1,75.0,29.88,South,172,6.0,15.0,67,0.00,,,0.00,weatherlink.com 1.10,2013-05-30 20:43:00,
2013-05-30 15:58:00,87.2,73.0,29.88,SSE,159,17.0,19.0,63,0.00,,,0.00,weatherlink.com 1.10,2013-05-30 20:58:00,
2013-05-30 16:13:00,86.4,74.0,29.87,South,174,11.0,14.0,66,0.00,,,0.00,weatherlink.com 1.10,2013-05-30 21:13:00,
2013-05-30 16:28:00,86.1,73.0,29.86,SSE,161,7.0,15.0,66,0.00,,,0.00,weatherlink.com 1.10,2013-05-30 21:28:00,
2013-05-30 16:43:00,86.5,75.0,29.87,South,186,11.0,15.0,68,0.00,,,0.00,weatherlink.com 1.10,2013-05-30 21:43:00,
2013-05-30 16:58:00,85.9,73.0,29.87,SE,143,14.0,19.0,66,0.00,,,0.00,weatherlink.com 1.10,2013-05-30 21:58:00,
2013-05-30 17:13:00,86.2,75.0,29.86,SSW,199,10.0,14.0,69,0.00,,,0.00,weatherlink.com 1.10,2013-05-30 22:13:00,
2013-05-30 17:28:00,85.6,74.0,29.86,SSW,192,6.0,14.0,69,0.00,,,0.00,weatherlink.com 1.10,2013-05-30 22:28:00,
2013-05-30 17:43:00,85.5,74.0,29.86,SSE,147,8.0,15.0,69,0.00,,,0.00,weatherlink.com 1.10,2013-05-30 22:43:00,
2013-05-30 17:58:00,85.1,73.0,29.86,South,184,6.0,14.0,68,0.00,,,0.00,weatherlink.com 1.10,2013-05-30 22:58:00,
2013-05-30 18:13:00,84.7,73.0,29.86,SSW,192,11.0,13.0,69,0.00,,,0.00,weatherlink.com 1.10,2013-05-30 23:13:00,
2013-05-30 18:28:00,84.4,74.0,29.86,South,173,8.0,13.0,70,0.00,,,0.00,weatherlink.com 1.10,2013-05-30 23:28:00,
2013-05-30 18:43:00,83.9,74.0,29.86,SSE,165,6.0,13.0,73,0.00,,,0.00,weatherlink.com 1.10,2013-05-30 23:43:00,
2013-05-30 18:58:00,83.4,74.0,29.86,SSE,167,9.0,15.0,73,0.00,,,0.00,weatherlink.com 1.10,2013-05-30 23:58:00,
2013-05-30 19:13:00,82.7,74.0,29.86,South,178,5.0,13.0,75,0.00,,,0.00,weatherlink.com 1.10,2013-05-31 00:13:00,
2013-05-30 19:28:00,82.1,74.0,29.86,SSW,192,5.0,10.0,77,0.00,,,0.00,weatherlink.com 1.10,2013-05-31 00:28:00,
2013-05-30 19:43:00,81.5,74.0,29.86,SSE,163,3.0,14.0,78,0.00,,,0.00,weatherlink.com 1.10,2013-05-31 00:43:00,
2013-05-30 19:58:00,80.9,74.0,29.86,SSW,194,4.0,8.0,80,0.00,,,0.00,weatherlink.com 1.10,2013-05-31 00:58:00,
2013-05-30 20:13:00,80.4,74.0,29.87,SSE,155,2.0,9.0,81,0.00,,,0.00,weatherlink.com 1.10,2013-05-31 01:13:00,
2013-05-30 20:28:00,80.0,74.0,29.87,SSE,159,1.0,10.0,83,0.00,,,0.00,weatherlink.com 1.10,2013-05-31 01:28:00,
2013-05-30 20:43:00,79.7,75.0,29.88,SSE,163,3.0,9.0,84,0.00,,,0.00,weatherlink.com 1.10,2013-05-31 01:43:00,
2013-05-30 20:58:00,79.3,75.0,29.89,South,172,1.0,8.0,86,0.00,,,0.00,weatherlink.com 1.10,2013-05-31 01:58:00,
2013-05-30 21:13:00,79.1,75.0,29.89,SSE,160,2.0,7.0,86,0.00,,,0.00,weatherlink.com 1.10,2013-05-31 02:13:00,
2013-05-30 21:28:00,78.7,75.0,29.90,South,178,2.0,7.0,87,0.00,,,0.00,weatherlink.com 1.10,2013-05-31 02:28:00,
2013-05-30 21:43:00,78.8,75.0,29.90,SE,135,4.0,8.0,87,0.00,,,0.00,weatherlink.com 1.10,2013-05-31 02:43:00,
2013-05-30 21:58:00,78.5,75.0,29.91,South,169,2.0,5.0,88,0.00,,,0.00,weatherlink.com 1.10,2013-05-31 02:58:00,
2013-05-30 22:13:00,78.3,75.0,29.92,SE,130,2.0,6.0,89,0.00,,,0.00,weatherlink.com 1.10,2013-05-31 03:13:00,
2013-05-30 22:28:00,78.3,75.0,29.93,SE,137,1.0,5.0,89,0.00,,,0.00,weatherlink.com 1.10,2013-05-31 03:28:00,
2013-05-30 22:43:00,78.0,75.0,29.93,SSE,147,2.0,4.0,89,0.00,,,0.00,weatherlink.com 1.10,2013-05-31 03:43:00,
2013-05-30 22:58:00,77.9,75.0,29.93,SSE,150,3.0,7.0,90,0.00,,,0.00,weatherlink.com 1.10,2013-05-31 03:58:00,
2013-05-30 23:13:00,77.7,75.0,29.93,ESE,122,1.0,5.0,90,0.00,,,0.00,weatherlink.com 1.10,2013-05-31 04:13:00,
2013-05-30 23:28:00,77.5,74.0,29.93,East,96,6.0,6.0,90,0.00,,,0.00,weatherlink.com 1.10,2013-05-31 04:28:00,
2013-05-30 23:43:00,77.6,74.0,29.92,ESE,118,5.0,12.0,89,0.00,,,0.00,weatherlink.com 1.10,2013-05-31 04:43:00,
2013-05-30 23:58:00,77.5,74.0,29.92,SE,146,2.0,10.0,89,0.00,,,0.00,weatherlink.com 1.10,2013-05-31 04:58:00,